Find Starlink 32809

NORAD ID: 62849 Int'l Des: 2025-019 Owner: SPXS Country: US Constellation: starlink operational
LEOCIRCULAR

Current View

Loading 3D Globe...

About Starlink 32809

Starlink 32809 (NORAD 62849) is a starlink constellation satellite (v2 mini) launched Jan 27, 2025 by SPXS of US. It operates in LEO, CIRCULAR orbit with a mass of 730.00 kg.

About Starlink 32809

Description loading...

Upcoming Passes

Passes for default location (London). Set your location on the main map for personalized predictions.

Altitude History

Loading altitude history...

Two-Line Element Set

1 62849U 25019W 26164.99858359 .00023170 00000-0 84825-3 0 9994
2 62849 43.0046 264.7771 0005424 265.5577 94.4655 15.27593815 76983
Epoch: Jun 13, 2026 • Age: 39 hours

Current Status

Altitude 485.3 km
Velocity 7.63 km/s
Sub-Earth Point 27.94°N, 155.25°E
Launch Date Jan 27, 2025
Age 1.3 years
Type internet

Technical Details

Classification Payload
Mass 730.00 kg
Dry Mass 700.00 kg
Total Mass 730.00 kg
Length 0.30 m
Diameter 4.10 m
Span 29.00 m
Shape Box + pan
Manufacturer SPXS
Bus Type Starlink V2M
Phase Status In Orbit
Owner/State SPXS/US

Most Searched